When you browse on this site, cookies collect data to enhance your experience and personalize the content and advertising you see.
Visit our Privacy Policy to learn more. By continuing to use the site, you agree to this use of cookies and data.
  • In Lithuania
  • List of Countries
  • For 7 days
  • Water Temperature
  • Weather Map
  • Weather Widgets
  • user-avatar
    Login

    Hourly Weather Kalemie

    Today, 1 April, Wednesday

    Time Temperature Precipitation Wind Pressure Humidity
    00:00 +29°C° 0 mm 2 mps 704 mmHg 55%
    01:00 +28°C° 0 mm 2 mps 703 mmHg 58%
    02:00 +27°C° 0 mm 2 mps 703 mmHg 61%
    03:00 +26°C° 0 mm 2 mps 703 mmHg 63%
    04:00 +26°C° 0 mm 1 mps 703 mmHg 66%
    05:00 +26°C° 0 mm 1 mps 703 mmHg 68%
    06:00 +27°C° 0 mm 1 mps 704 mmHg 62%
    07:00 +29°C° 0 mm 1 mps 705 mmHg 56%
    08:00 +31°C° 0 mm 1 mps 706 mmHg 50%
    09:00 +35°C° 0 mm 1 mps 706 mmHg 41%
    10:00 +39°C° 0 mm 2 mps 707 mmHg 32%
    11:00 +42°C° 0 mm 2 mps 707 mmHg 23%
    12:00 +42°C° 0 mm 2 mps 706 mmHg 22%
    13:00 +41°C° 0 mm 2 mps 705 mmHg 21%
    14:00 +40°C° 0 mm 2 mps 704 mmHg 20%
    15:00 +40°C° 0 mm 2 mps 704 mmHg 23%
    16:00 +39°C° 0 mm 2 mps 703 mmHg 25%
    17:00 +38°C° 0 mm 2 mps 703 mmHg 27%
    18:00 +35°C° 0 mm 1 mps 703 mmHg 31%
    19:00 +34°C° 0 mm 1 mps 704 mmHg 34%
    20:00 +32°C° 0 mm 1 mps 704 mmHg 38%
    21:00 +31°C° 0 mm 1 mps 704 mmHg 41%
    22:00 +31°C° 0 mm 1 mps 704 mmHg 45%
    23:00 +30°C° 0 mm 1 mps 704 mmHg 48%

    Tomorrow, 2 April, Thursday

    Time Temperature Precipitation Wind Pressure Humidity
    00:00 +29°C° 0 mm 2 mps 704 mmHg 51%
    01:00 +29°C° 0 mm 2 mps 703 mmHg 54%
    02:00 +28°C° 0 mm 2 mps 703 mmHg 57%
    03:00 +28°C° 0 mm 2 mps 703 mmHg 57%
    04:00 +27°C° 0 mm 2 mps 703 mmHg 57%
    05:00 +27°C° 0 mm 1 mps 703 mmHg 57%
    06:00 +28°C° 0 mm 1 mps 704 mmHg 52%
    07:00 +30°C° 0 mm 2 mps 705 mmHg 47%
    08:00 +32°C° 0 mm 2 mps 705 mmHg 42%
    09:00 +36°C° 0 mm 2 mps 706 mmHg 36%
    10:00 +39°C° 0 mm 2 mps 706 mmHg 29%
    11:00 +42°C° 0 mm 2 mps 706 mmHg 23%
    12:00 +42°C° 0 mm 2 mps 705 mmHg 22%
    13:00 +42°C° 0 mm 2 mps 704 mmHg 20%
    14:00 +42°C° 0 mm 2 mps 703 mmHg 19%
    15:00 +41°C° 0 mm 2 mps 703 mmHg 20%
    16:00 +40°C° 0 mm 2 mps 702 mmHg 21%
    17:00 +40°C° 0 mm 2 mps 702 mmHg 22%
    18:00 +37°C° 0 mm 1 mps 702 mmHg 26%
    19:00 +34°C° 0 mm 1 mps 702 mmHg 30%
    20:00 +32°C° 0 mm 1 mps 702 mmHg 34%
    21:00 +31°C° 0 mm 1 mps 702 mmHg 36%
    22:00 +30°C° 0 mm 1 mps 703 mmHg 39%
    23:00 +29°C° 0 mm 1 mps 703 mmHg 42%

    Day after tomorrow, 3 April, Friday

    Time Temperature Precipitation Wind Pressure Humidity
    00:00 +29°C° 0 mm 1 mps 702 mmHg 43%
    01:00 +29°C° 0 mm 1 mps 702 mmHg 44%
    02:00 +28°C° 0 mm 1 mps 701 mmHg 45%
    03:00 +28°C° 0 mm 1 mps 701 mmHg 47%
    04:00 +27°C° 0 mm 1 mps 702 mmHg 48%
    05:00 +27°C° 0 mm 2 mps 702 mmHg 49%
    06:00 +29°C° 0 mm 2 mps 703 mmHg 46%
    07:00 +31°C° 0 mm 2 mps 703 mmHg 43%
    08:00 +32°C° 0 mm 2 mps 704 mmHg 40%
    09:00 +37°C° 0 mm 2 mps 705 mmHg 33%
    10:00 +41°C° 0 mm 2 mps 705 mmHg 27%
    11:00 +45°C° 0 mm 2 mps 705 mmHg 20%
    12:00 +43°C° 0 mm 2 mps 704 mmHg 19%
    13:00 +43°C° 0 mm 2 mps 703 mmHg 19%
    14:00 +42°C° 0 mm 2 mps 702 mmHg 18%
    15:00 +42°C° 0 mm 2 mps 702 mmHg 19%
    16:00 +41°C° 0 mm 2 mps 702 mmHg 20%
    17:00 +40°C° 0 mm 2 mps 702 mmHg 21%
    18:00 +38°C° 0 mm 2 mps 702 mmHg 27%
    19:00 +35°C° 0 mm 2 mps 701 mmHg 33%
    20:00 +32°C° 0 mm 2 mps 701 mmHg 39%
    21:00 +31°C° 0 mm 2 mps 701 mmHg 41%
    22:00 +30°C° 0 mm 2 mps 702 mmHg 44%
    23:00 +29°C° 0 mm 2 mps 702 mmHg 47%

    4 April, Saturday

    Time Temperature Precipitation Wind Pressure Humidity
    00:00 +29°C° 0 mm 2 mps 702 mmHg 48%
    01:00 +28°C° 0 mm 2 mps 702 mmHg 48%
    02:00 +28°C° 0 mm 2 mps 701 mmHg 49%
    03:00 +28°C° 0 mm 2 mps 702 mmHg 50%
    04:00 +28°C° 0 mm 2 mps 702 mmHg 50%
    05:00 +28°C° 0 mm 3 mps 702 mmHg 51%
    06:00 +28°C° 0 mm 3 mps 703 mmHg 53%
    07:00 +29°C° 0 mm 3 mps 704 mmHg 54%
    08:00 +30°C° 0 mm 3 mps 705 mmHg 55%
    09:00 +33°C° 0 mm 3 mps 706 mmHg 49%
    10:00 +36°C° 0 mm 2 mps 706 mmHg 42%
    11:00 +39°C° 0 mm 2 mps 706 mmHg 35%
    12:00 +39°C° 0 mm 2 mps 706 mmHg 33%
    13:00 +40°C° 0 mm 1 mps 705 mmHg 31%
    14:00 +41°C° 0 mm 1 mps 704 mmHg 29%
    15:00 +39°C° 0.2 mm 2 mps 704 mmHg 36%
    16:00 +36°C° 0.2 mm 2 mps 703 mmHg 42%
    17:00 +34°C° 0.2 mm 2 mps 703 mmHg 49%
    18:00 +31°C° 1.2 mm 3 mps 703 mmHg 60%
    19:00 +28°C° 1.2 mm 3 mps 703 mmHg 71%
    20:00 +26°C° 1.2 mm 4 mps 704 mmHg 82%
    21:00 +25°C° 0.1 mm 3 mps 704 mmHg 81%
    22:00 +25°C° 0.1 mm 3 mps 704 mmHg 81%
    23:00 +25°C° 0.1 mm 2 mps 704 mmHg 81%

    5 April, Sunday

    Time Temperature Precipitation Wind Pressure Humidity
    00:00 +25°C° 0 mm 2 mps 704 mmHg 79%
    01:00 +25°C° 0 mm 2 mps 703 mmHg 77%
    02:00 +25°C° 0 mm 1 mps 703 mmHg 76%
    03:00 +25°C° 0 mm 1 mps 703 mmHg 76%
    04:00 +25°C° 0 mm 1 mps 703 mmHg 76%
    05:00 +25°C° 0 mm 1 mps 703 mmHg 76%
    06:00 +26°C° 0 mm 1 mps 704 mmHg 71%
    07:00 +27°C° 0 mm 2 mps 705 mmHg 67%
    08:00 +28°C° 0 mm 2 mps 706 mmHg 62%
    09:00 +31°C° 0 mm 1 mps 706 mmHg 52%
    10:00 +35°C° 0 mm 1 mps 707 mmHg 42%
    11:00 +40°C° 0 mm 1 mps 707 mmHg 32%
    12:00 +41°C° 0 mm 1 mps 706 mmHg 30%
    13:00 +42°C° 0 mm 1 mps 705 mmHg 27%
    14:00 +43°C° 0 mm 1 mps 705 mmHg 24%
    15:00 +41°C° 0 mm 1 mps 704 mmHg 27%
    16:00 +39°C° 0 mm 2 mps 704 mmHg 30%
    17:00 +37°C° 0 mm 2 mps 703 mmHg 33%
    18:00 +35°C° 0 mm 2 mps 703 mmHg 40%
    19:00 +32°C° 0 mm 2 mps 703 mmHg 47%
    20:00 +30°C° 0 mm 2 mps 703 mmHg 54%
    21:00 +29°C° 0 mm 2 mps 703 mmHg 56%
    22:00 +29°C° 0 mm 2 mps 704 mmHg 57%
    23:00 +28°C° 0 mm 2 mps 704 mmHg 59%

    6 April, Monday

    Time Temperature Precipitation Wind Pressure Humidity
    00:00 +28°C° 0 mm 2 mps 704 mmHg 61%
    01:00 +27°C° 0 mm 2 mps 703 mmHg 63%
    02:00 +27°C° 0 mm 2 mps 703 mmHg 65%
    03:00 +26°C° 0 mm 2 mps 703 mmHg 67%
    04:00 +26°C° 0 mm 2 mps 703 mmHg 70%
    05:00 +26°C° 0 mm 2 mps 703 mmHg 73%
    06:00 +27°C° 0 mm 2 mps 704 mmHg 69%
    07:00 +28°C° 0 mm 2 mps 705 mmHg 65%
    08:00 +29°C° 0 mm 2 mps 706 mmHg 60%
    09:00 +33°C° 0 mm 3 mps 706 mmHg 50%
    10:00 +36°C° 0 mm 3 mps 706 mmHg 40%
    11:00 +40°C° 0 mm 4 mps 706 mmHg 30%
    12:00 +40°C° 0 mm 3 mps 705 mmHg 28%
    13:00 +42°C° 0 mm 3 mps 704 mmHg 26%
    14:00 +41°C° 0 mm 2 mps 704 mmHg 24%
    15:00 +39°C° 0 mm 2 mps 703 mmHg 28%
    16:00 +37°C° 0 mm 2 mps 703 mmHg 32%
    17:00 +35°C° 0 mm 2 mps 702 mmHg 36%
    18:00 +34°C° 0 mm 2 mps 703 mmHg 40%
    19:00 +32°C° 0 mm 1 mps 703 mmHg 43%
    20:00 +31°C° 0 mm 1 mps 703 mmHg 46%
    21:00 +30°C° 0 mm 1 mps 703 mmHg 47%
    22:00 +30°C° 0 mm 1 mps 704 mmHg 49%
    23:00 +30°C° 0 mm 1 mps 704 mmHg 50%
    Show more